Погода в Вишневом

Украина / Днепропетровская область     48°01′47″N   33°50′07″E
темп.,
°C
ветер,
м/с
пор.,
м/с
влажн.,
%
обл.,
%
осадки,
мм/ч
давл.,
гПа
погр.,
м
13 июня, вс
вс1300:00+18зюз117493 0.0 101112
03:00+18юз337299 0.0 101045
06:00+18ююз3575100 0.0 100992
09:00+20юз367289 0.0 1010343
12:00+25ююз574687 0.0 10092513
15:00+21ююв51069100 0.1 1008277
18:00+24ююз4757100 0.0 1007830
21:00+19ю411704 0.1 1008213
14 июня, пн
пн1400:00+16ююз33845 0.3 100928
03:00+15ююв338517 0.3 100939
06:00+16юв35895 0.1 1009130
09:00+21юв67665 0.1 1010860
12:00+24ююв575524 0.0 10111626
15:00+26юв464664 0.0 10112329
18:00+25юв455346 0.1 10111751
21:00+19юв22705 0.1 101115
15 июня, вт
вт1500:00+18св227443 0.0 101219
03:00+17ссв33805 0.0 101245
06:00+17св47865 0.0 1012146
09:00+23всв686657 0.0 1012560
12:00+26всв67541 0.8 10111413
15:00+27всв5747100 0.8 10092346
18:00+24в3560100 0.3 1008683
21:00+18ю2389100 1.6 100952
16 июня, ср
ср1600:00+18всв3590100 2.3 1008115
03:00+17всв4892100 5.7 1008167
06:00+17вюв2495100 0.4 1008143
09:00+21юв337995 0.6 1009744
12:00+22ююв336992 0.1 1010952
15:00+19юв6780100 1.3 1010382
18:00+17ююв2587100 0.1 1011207
21:00+16ю2292100 0.3 101265
17 июня, чт
чт1700:00+16сз3696100 2.3 1011226
03:00+16сз2397100 2.8 1011132
06:00+16св2695100 0.2 1011219
09:00+19св5887100 0.4 1012557
12:00+21св567392 1.6 10121038
15:00+22в3569100 2.6 1012996
18:00+23юв566887 0.8 10131098
21:00+19всв3480100 0.9 101545